FW2026 Weather Reports


Display with metric or nautical units.
time (UTC)temp
F
wind
direction
speed
MPH
gust
MPH
rain 1hr
in
rain 24hr
in
rain mn
in
humidity
%
barometer
mb
20260902162903 70 223 1.0 5.0 0.00 0.00 0.00 62 1020.1
20260902162402 70 274 1.0 7.0 0.00 0.00 0.00 62 1020.2
20260902161901 70 202 1.0 9.0 0.00 0.00 0.00 62 1020.2
20260902161401 71 240 3.0 9.0 0.00 0.00 0.00 62 1020.2
20260902161136 70 220 2.0 7.0 0.00 0.00 0.00 62 1020.2
20260902160403 70 172 3.0 9.0 0.00 0.00 0.00 61 1020.1
20260902155901 70 228 3.0 9.0 0.00 0.00 0.00 60 1020.2
20260902155400 71 238 3.0 7.0 0.00 0.00 0.00 60 1020.2
20260902155135 71 220 4.0 9.0 0.00 0.00 0.00 60 1020.1
20260902154401 71 250 5.0 9.0 0.00 0.00 0.00 59 1020.1
20260902153900 71 228 4.0 9.0 0.00 0.00 0.00 59 1020.2
20260902153400 72 237 5.0 9.0 0.00 0.00 0.00 58 1020.2
20260902152900 72 314 1.0 6.0 0.00 0.00 0.00 59 1020.2
20260902152639 72 113 2.0 6.0 0.00 0.00 0.00 58 1020.1
20260902152149 72 238 2.0 7.0 0.00 0.00 0.00 58 1020.2
20260902151359 72 238 3.0 10.0 0.00 0.00 0.00 58 1020.2
20260902150901 72 192 3.0 10.0 0.00 0.00 0.00 57 1020.2
20260902150358 73 189 4.0 6.0 0.00 0.00 0.00 58 1020.1
20260902145858 73 214 2.0 7.0 0.00 0.00 0.00 59 1020.3
20260902145359 73 226 2.0 7.0 0.00 0.00 0.00 59 1020.4
20260902144858 73 313 3.0 7.0 0.00 0.00 0.00 58 1020.3
20260902144358 73 223 4.0 7.0 0.00 0.00 0.00 59 1020.3
20260902143859 73 234 3.0 9.0 0.00 0.00 0.00 58 1020.2
20260902143358 73 228 5.0 9.0 0.00 0.00 0.00 58 1020.4
20260902143135 72 240 2.0 7.0 0.00 0.00 0.00 60 1020.4
20260902142358 72 255 2.0 7.0 0.00 0.00 0.00 59 1020.5
20260902141858 72 275 2.0 6.0 0.00 0.00 0.00 60 1020.4
20260902141358 72 227 3.0 6.0 0.00 0.00 0.00 60 1020.5
20260902140857 72 230 2.0 6.0 0.00 0.00 0.00 60 1020.4
20260902140358 72 226 2.0 5.0 0.00 0.00 0.00 60 1020.4
20260902135858 71 203 2.0 10.0 0.00 0.00 0.00 61 1020.4
20260902135359 71 238 2.0 10.0 0.00 0.00 0.00 60 1020.4
20260902134857 72 221 1.0 5.0 0.00 0.00 0.00 60 1020.3
20260902134358 72 217 2.0 9.0 0.00 0.00 0.00 60 1020.4
20260902133856 71 212 2.0 9.0 0.00 0.00 0.00 61 1020.4
20260902133639 71 196 2.0 6.0 0.00 0.00 0.00 61 1020.4
20260902132858 71 183 2.0 5.0 0.00 0.00 0.00 61 1020.4
20260902132357 71 230 1.0 6.0 0.00 0.00 0.00 62 1020.4
20260902131856 71 200 1.0 7.0 0.00 0.00 0.00 62 1020.4
20260902131356 71 216 4.0 10.0 0.00 0.00 0.00 60 1020.4
20260902130856 71 240 3.0 10.0 0.00 0.00 0.00 61 1020.5
20260902130356 71 290 2.0 7.0 0.00 0.00 0.00 62 1020.5
20260902125857 71 252 4.0 7.0 0.00 0.00 0.00 61 1020.4
20260902125357 71 286 2.0 6.0 0.00 0.00 0.00 61 1020.5
20260902124856 71 196 3.0 6.0 0.00 0.00 0.00 61 1020.5
20260902124355 71 176 2.0 6.0 0.00 0.00 0.00 60 1020.6
20260902123855 71 262 2.0 9.0 0.00 0.01 0.00 59 1020.5
20260902123359 71 336 4.0 9.0 0.00 0.01 0.00 59 1020.7
20260902122855 71 298 3.0 7.0 0.00 0.01 0.00 61 1020.6
20260902122356 71 259 2.0 6.0 0.00 0.01 0.00 61 1020.7
20260902121856 71 216 2.0 7.0 0.00 0.01 0.00 60 1020.6
20260902121355 71 147 4.0 7.0 0.00 0.01 0.00 60 1020.6
20260902121133 71 312 3.0 6.0 0.00 0.01 0.00 60 1020.7
20260902120355 71 226 3.0 6.0 0.00 0.01 0.00 61 1020.9
20260902115855 71 271 3.0 9.0 0.00 0.01 0.00 62 1020.9
20260902115355 71 289 3.0 9.0 0.00 0.01 0.00 61 1021.0
20260902114854 71 204 4.0 11.0 0.00 0.01 0.00 61 1020.9
20260902114357 71 235 2.0 11.0 0.00 0.01 0.00 62 1020.9
20260902113854 70 272 1.0 13.0 0.00 0.01 0.00 63 1021.0
20260902113355 70 173 6.0 13.0 0.00 0.01 0.00 62 1020.9
20260902112855 70 216 3.0 9.0 0.00 0.01 0.00 62 1020.9
20260902112354 70 182 5.0 9.0 0.00 0.01 0.00 62 1020.9
20260902111855 71 247 4.0 7.0 0.00 0.01 0.00 62 1020.8
20260902111352 71 221 3.0 9.0 0.00 0.01 0.00 63 1020.8
20260902110854 71 223 5.0 9.0 0.00 0.01 0.00 61 1020.8
20260902110353 71 272 2.0 6.0 0.00 0.01 0.00 63 1020.8
20260902105854 70 235 4.0 7.0 0.00 0.01 0.00 63 1020.9
20260902105354 70 206 2.0 14.0 0.00 0.02 0.00 64 1021.0
20260902105133 70 276 4.0 14.0 0.00 0.07 0.00 64 1021.0
20260902104354 70 142 5.0 11.0 0.00 0.07 0.00 64 1021.0
20260902103853 70 200 4.0 11.0 0.00 0.08 0.00 65 1020.9
20260902103636 70 193 4.0 11.0 0.00 0.08 0.00 65 1021.0
20260902102853 69 216 4.0 11.0 0.00 0.08 0.00 66 1021.0
20260902102355 69 203 2.0 10.0 0.00 0.08 0.00 67 1021.1
20260902101853 69 224 5.0 12.0 0.00 0.08 0.00 66 1021.0
20260902101352 69 212 2.0 12.0 0.00 0.08 0.00 67 1021.0
20260902100853 69 217 4.0 9.0 0.00 0.08 0.00 68 1021.0
20260902100352 69 259 2.0 9.0 0.00 0.08 0.00 68 1021.1
20260902095852 68 259 4.0 9.0 0.00 0.08 0.00 67 1021.0
20260902095352 68 219 3.0 13.0 0.00 0.08 0.00 68 1021.1
20260902094851 68 247 4.0 13.0 0.00 0.08 0.00 68 1021.0
20260902094352 68 185 4.0 11.0 0.00 0.08 0.00 69 1020.9
20260902093851 67 219 4.0 9.0 0.00 0.08 0.00 70 1021.0
20260902093352 67 283 4.0 10.0 0.00 0.08 0.00 70 1021.0
20260902092851 66 288 3.0 10.0 0.00 0.08 0.00 71 1021.1
20260902092351 66 283 2.0 13.0 0.00 0.08 0.00 71 1021.1
20260902091851 66 244 3.0 13.0 0.00 0.08 0.00 70 1021.0
20260902091636 66 214 2.0 9.0 0.00 0.08 0.00 70 1021.1
20260902090852 66 237 3.0 9.0 0.00 0.08 0.00 71 1021.1
20260902090351 66 250 4.0 9.0 0.00 0.08 0.00 71 1021.1
20260902085851 66 266 3.0 7.0 0.00 0.08 0.00 72 1021.0
20260902085649 66 188 3.0 10.0 0.00 0.08 0.00 71 1021.0
20260902084351 65 252 3.0 9.0 0.00 0.08 0.00 72 1021.0
20260902083850 65 180 4.0 9.0 0.00 0.08 0.00 72 1020.9
20260902083350 65 196 3.0 9.0 0.00 0.08 0.00 72 1021.1
20260902083130 65 240 2.0 7.0 0.00 0.08 0.00 72 1020.8
20260902082635 65 255 4.0 7.0 0.00 0.08 0.00 73 1020.8
20260902081850 65 258 2.0 6.0 0.00 0.08 0.00 73 1020.8
20260902081351 64 223 1.0 6.0 0.00 0.08 0.00 73 1020.7
20260902080850 64 190 4.0 6.0 0.00 0.08 0.00 73 1020.7
20260902080414 64 190 2.0 6.0 0.00 0.08 0.00 74 1020.7
20260902075350 63 217 4.0 9.0 0.00 0.08 0.00 74 1020.7
20260902074850 63 197 1.0 9.0 0.00 0.08 0.00 74 1020.7
20260902074351 63 185 3.0 6.0 0.00 0.08 0.00 75 1020.8
20260902073849 62 275 2.0 6.0 0.00 0.08 0.00 76 1020.5
20260902073349 62 230 1.0 6.0 0.00 0.08 0.00 77 1020.6
20260902072850 62 235 1.0 7.0 0.00 0.08 0.00 78 1020.6
20260902072349 61 224 2.0 7.0 0.00 0.08 0.00 79 1020.5
20260902071850 60 241 2.0 6.0 0.00 0.08 0.00 80 1020.6
20260902071348 60 212 2.0 6.0 0.00 0.08 0.00 81 1020.5
20260902071122 60 204 2.0 5.0 0.00 0.08 0.00 83 1020.6
20260902070632 60 200 1.0 5.0 0.00 0.08 0.00 85 1020.6
20260902070122 59 202 2.0 5.0 0.00 0.08 0.00 86 1020.6
20260902065342 59 289 2.0 4.0 0.00 0.08 0.00 87 1020.8
20260902064842 58 298 0.0 5.0 0.00 0.08 0.00 87 1020.7
20260902064343 58 255 2.0 5.0 0.00 0.08 0.00 87 1020.7
20260902063843 58 190 1.0 5.0 0.00 0.08 0.00 87 1020.6
20260902063342 58 189 2.0 5.0 0.00 0.08 0.00 87 1020.6
20260902062841 57 221 1.0 3.0 0.00 0.08 0.00 87 1020.7
20260902062339 57 241 1.0 3.0 0.00 0.08 0.00 87 1020.6
20260902061840 56 216 0.0 3.0 0.00 0.08 0.00 87 1020.5
20260902061620 56 175 1.0 3.0 0.00 0.08 0.00 87 1020.5
20260902060840 56 233 1.0 3.0 0.00 0.08 0.00 87 1020.3
20260902060339 56 206 0.0 1.0 0.00 0.08 0.00 87 1020.3
20260902055837 56 209 0.0 2.0 0.00 0.08 0.00 87 1020.3
20260902055336 56 214 0.0 2.0 0.00 0.08 0.00 87 1020.4
20260902054837 56 0 1.0 2.0 0.00 0.08 0.00 87 1020.4
20260902054334 56 203 1.0 2.0 0.00 0.08 0.00 87 1020.3
20260902053834 56 221 1.0 2.0 0.00 0.08 0.00 87 1020.3
20260902053618 56 0 0.0 2.0 0.00 0.08 0.00 87 1020.4
20260902053110 56 212 0.0 1.0 0.00 0.08 0.00 87 1020.3
20260902052332 56 0 0.0 1.0 0.00 0.08 0.00 87 1020.3
20260902052110 56 0 0.0 0.0 0.00 0.08 0.00 86 1020.4
20260902051332 56 0 0.0 1.0 0.00 0.08 0.00 87 1020.2
20260902050832 56 210 0.0 1.0 0.00 0.08 0.00 87 1020.2
20260902050612 57 212 0.0 1.0 0.00 0.08 0.00 87 1020.2
20260902045832 57 212 0.0 1.0 0.00 0.08 0.00 87 1020.2
20260902045335 57 0 0.0 1.0 0.00 0.08 0.00 87 1020.0
20260902044830 57 0 0.0 0.0 0.00 0.08 0.00 87 1020.0
20260902044331 57 210 0.0 0.0 0.00 0.08 0.00 87 1019.9
20260902043830 57 0 0.0 0.0 0.00 0.08 0.00 87 1020.0
20260902043330 57 0 0.0 0.0 0.00 0.08 0.00 87 1019.9
20260902042830 57 210 0.0 0.0 0.00 0.08 0.00 87 1020.0
20260902042331 57 210 0.0 1.0 0.00 0.08 0.00 87 1020.0
20260902041832 57 210 0.0 1.0 0.00 0.08 0.00 87 1019.9
20260902041331 57 212 0.0 1.0 0.00 0.08 0.00 87 1019.9
20260902040832 57 288 0.0 1.0 0.00 0.08 0.00 86 1020.0
20260902040331 57 0 0.0 1.0 0.00 0.08 0.00 86 1020.0
20260902040122 57 182 0.0 0.0 0.00 0.08 0.00 86 1020.1
20260902035331 57 182 0.0 1.0 0.00 0.08 0.00 86 1019.9
20260902034846 57 182 0.0 1.0 0.00 0.08 0.00 86 1020.0
20260902033831 58 0 0.0 1.0 0.00 0.08 0.00 86 1020.0
20260902033330 58 185 0.0 1.0 0.00 0.08 0.00 87 1020.0
20260902032832 58 185 0.0 1.0 0.00 0.08 0.00 87 1020.0
20260902032333 57 155 0.0 1.0 0.00 0.08 0.00 87 1020.0
20260902031830 57 0 0.0 1.0 0.00 0.08 0.00 86 1020.0
20260902031331 57 0 0.0 1.0 0.00 0.08 0.00 86 1020.0
20260902030831 57 0 0.0 1.0 0.00 0.08 0.00 86 1019.9
20260902030612 57 155 0.0 0.0 0.00 0.08 0.00 85 1019.9
20260902025832 57 0 0.0 0.0 0.00 0.08 0.00 85 1019.9
20260902025330 57 0 0.0 0.0 0.00 0.08 0.00 85 1020.0
20260902024831 57 155 0.0 0.0 0.00 0.08 0.00 85 1020.0
20260902024331 57 155 0.0 0.0 0.00 0.08 0.00 85 1020.1
20260902023830 57 155 0.0 0.0 0.00 0.08 0.00 85 1020.0
20260902023331 57 155 0.0 0.0 0.00 0.08 0.00 85 1020.1
20260902022831 58 155 0.0 0.0 0.00 0.08 0.00 85 1020.1
20260902022331 58 155 0.0 0.0 0.00 0.08 0.00 85 1020.2
20260902021832 58 155 0.0 0.0 0.00 0.08 0.00 85 1020.2
20260902021333 58 155 0.0 1.0 0.00 0.08 0.00 85 1020.1
20260902020831 58 155 0.0 1.0 0.00 0.08 0.00 85 1020.1
20260902020330 58 155 0.0 1.0 0.00 0.08 0.00 85 1020.3
20260902015831 58 155 0.0 1.0 0.00 0.08 0.00 85 1020.3
20260902015331 58 155 0.0 0.0 0.00 0.08 0.00 85 1020.3
20260902014831 58 155 0.0 0.0 0.00 0.08 0.00 85 1020.3
20260902014330 58 155 0.0 0.0 0.00 0.08 0.00 85 1020.3
20260902013831 58 155 0.0 0.0 0.00 0.08 0.00 85 1020.4
20260902013333 58 155 0.0 0.0 0.00 0.08 0.00 85 1020.5
20260902012830 58 155 0.0 0.0 0.00 0.08 0.00 84 1020.5
20260902012331 58 155 0.0 0.0 0.00 0.08 0.00 84 1020.3
20260902011831 58 155 0.0 0.0 0.00 0.08 0.00 84 1020.3
20260902011609 58 155 0.0 0.0 0.00 0.08 0.00 84 1020.2
20260902010831 58 155 0.0 0.0 0.00 0.08 0.00 84 1020.2
20260902010331 58 155 0.0 0.0 0.00 0.08 0.00 84 1020.1
20260902005830 59 155 0.0 0.0 0.00 0.08 0.00 84 1020.0
20260902005332 59 155 0.0 0.0 0.00 0.08 0.00 85 1020.1
20260902004831 59 155 0.0 0.0 0.00 0.08 0.00 85 1020.3
20260902004333 59 155 0.0 2.0 0.00 0.08 0.00 85 1020.3
20260902003831 59 155 0.0 2.0 0.00 0.08 0.00 85 1020.2
20260902003332 58 155 1.0 2.0 0.00 0.08 0.00 85 1020.2
20260902002832 58 0 0.0 0.0 0.00 0.08 0.00 84 1020.3
20260902002330 58 148 0.0 0.0 0.00 0.08 0.00 84 1020.2
20260902002102 58 0 0.0 0.0 0.00 0.08 0.00 84 1020.4
20260902001609 58 148 0.0 0.0 0.00 0.08 0.00 84 1020.4
20260902001100 58 148 0.0 0.0 0.00 0.08 0.00 84 1020.4
20260902000325 58 148 0.0 0.0 0.00 0.08 0.00 83 1020.4
20260901235827 58 148 0.0 0.0 0.00 0.08 0.00 83 1020.5
20260901235326 58 148 0.0 1.0 0.00 0.08 0.00 83 1020.5
20260901234823 58 148 0.0 1.0 0.00 0.08 0.00 83 1020.4
20260901234324 58 148 0.0 0.0 0.00 0.08 0.00 83 1020.4
20260901233823 58 148 0.0 0.0 0.00 0.08 0.00 83 1020.4
20260901233323 58 148 0.0 0.0 0.00 0.08 0.00 83 1020.5
20260901232822 58 148 0.0 0.0 0.00 0.08 0.00 83 1020.5
20260901232320 58 0 0.0 0.0 0.00 0.08 0.00 82 1020.6
20260901231820 58 0 0.0 0.0 0.00 0.08 0.00 82 1020.6
20260901231330 58 148 0.0 0.0 0.00 0.08 0.00 82 1020.6
20260901230319 58 148 0.0 1.0 0.00 0.08 0.00 82 1020.6
20260901225818 58 161 0.0 1.0 0.00 0.08 0.00 82 1020.5
20260901225318 58 161 0.0 1.0 0.00 0.08 0.00 82 1020.5
20260901224818 58 161 0.0 1.0 0.00 0.08 0.00 82 1020.6
20260901224317 58 161 0.0 0.0 0.00 0.08 0.00 81 1020.6
20260901223818 58 0 0.0 0.0 0.00 0.08 0.00 81 1020.6
20260901223315 58 0 0.0 0.0 0.00 0.08 0.00 81 1020.6
20260901222815 58 0 0.0 0.0 0.00 0.08 0.00 81 1020.7
20260901222314 58 0 0.0 0.0 0.00 0.08 0.00 81 1020.6
20260901221814 58 0 0.0 0.0 0.00 0.08 0.00 81 1020.7
20260901221313 58 0 0.0 0.0 0.00 0.08 0.00 81 1020.6
20260901221047 58 306 0.0 0.0 0.00 0.08 0.00 81 1020.7
20260901220310 58 0 0.0 0.0 0.00 0.08 0.00 81 1020.8
20260901215809 58 306 0.0 0.0 0.00 0.08 0.08 81 1020.8
20260901215310 58 0 0.0 0.0 0.00 0.08 0.08 81 1020.9
20260901214809 58 0 0.0 0.0 0.00 0.08 0.08 81 1020.9
20260901214308 57 305 0.0 0.0 0.00 0.08 0.08 80 1021.0
20260901213819 57 0 0.0 0.0 0.00 0.08 0.08 80 1021.0
20260901212806 58 307 0.0 0.0 0.00 0.08 0.08 79 1020.9
20260901212306 58 0 0.0 0.0 0.00 0.08 0.08 80 1020.9
20260901211806 58 307 0.0 0.0 0.00 0.08 0.08 80 1020.9
20260901211308 58 0 0.0 0.0 0.00 0.08 0.08 80 1020.8
20260901210807 58 0 0.0 0.0 0.00 0.08 0.08 79 1020.8
20260901210305 58 306 0.0 0.0 0.00 0.08 0.08 79 1020.8
20260901205805 58 0 0.0 0.0 0.00 0.08 0.08 79 1020.8
20260901205306 58 307 0.0 0.0 0.00 0.08 0.08 79 1020.8
20260901204806 58 309 0.0 0.0 0.00 0.08 0.08 79 1020.8
20260901204302 58 309 0.0 0.0 0.00 0.08 0.08 79 1020.7
20260901203803 58 309 0.0 0.0 0.00 0.08 0.08 78 1020.7
20260901203545 59 309 0.0 0.0 0.00 0.08 0.08 79 1020.8
20260901202804 58 309 0.0 0.0 0.00 0.08 0.08 79 1020.6
20260901202306 58 309 0.0 0.0 0.00 0.08 0.08 78 1020.5
20260901201802 59 309 0.0 0.0 0.00 0.08 0.08 78 1020.5
20260901201303 59 309 0.0 0.0 0.00 0.08 0.08 78 1020.3
20260901201041 59 309 0.0 0.0 0.00 0.08 0.08 78 1020.5
20260901200302 60 309 0.0 0.0 0.00 0.08 0.08 78 1020.5
20260901195803 60 309 0.0 0.0 0.00 0.08 0.08 77 1020.6
20260901195305 60 309 0.0 0.0 0.00 0.08 0.08 77 1020.6
20260901194803 60 309 0.0 0.0 0.00 0.08 0.08 77 1020.5
20260901194302 60 309 0.0 0.0 0.00 0.08 0.08 76 1020.5
20260901193803 61 0.0 0.0 0.00 0.08 0.08 76 1020.4
20260901193302 61 0.0 0.0 0.00 0.08 0.08 75 1020.3
20260901192802 62 0.0 0.0 0.00 0.08 0.08 75 1020.2
20260901192306 62 0.0 0.0 0.00 0.08 0.08 75 1020.4
20260901191802 62 0.0 0.0 0.00 0.08 0.08 74 1020.3
20260901191303 62 0.0 0.0 0.00 0.08 0.08 73 1020.3
20260901190803 63 0.0 0.0 0.00 0.08 0.08 72 1020.3
20260901190302 63 0.0 0.0 0.00 0.08 0.08 71 1020.4
20260901185803 64 0.0 0.0 0.00 0.08 0.08 70 1020.3
20260901185306 64 309 0.0 0.0 0.00 0.08 0.08 71 1020.3
20260901184812 65 309 0.0 0.0 0.00 0.08 0.08 71 1020.3
20260901183802 65 0.0 0.0 0.00 0.08 0.08 69 1020.2
20260901183303 66 309 0.0 0.0 0.00 0.08 0.08 69 1020.3
20260901182803 66 309 0.0 0.0 0.00 0.08 0.08 68 1020.2
20260901182236 67 309 0.0 1.0 0.00 0.08 0.08 68 1020.2
20260901181735 67 268 0.0 1.0 0.00 0.08 0.08 67 1020.3
20260901181236 68 274 0.0 1.0 0.00 0.08 0.08 66 1020.2
20260901180735 68 279 0.0 1.0 0.00 0.08 0.08 66 1020.2
20260901180236 69 293 0.0 1.0 0.00 0.08 0.08 65 1020.2
20260901175735 69 320 0.0 1.0 0.00 0.08 0.08 64 1020.2
20260901175520 69 272 0.0 0.0 0.00 0.08 0.08 64 1020.2
20260901174735 70 264 0.0 1.0 0.00 0.08 0.08 63 1020.1
20260901174234 70 285 0.0 1.0 0.00 0.08 0.08 63 1020.1
20260901173733 70 309 0.0 2.0 0.00 0.08 0.08 63 1020.2
20260901173234 70 313 0.0 2.0 0.00 0.08 0.08 62 1020.1
20260901172734 70 289 1.0 3.0 0.00 0.08 0.08 62 1020.0
20260901172532 70 326 0.0 3.0 0.00 0.08 0.08 61 1020.0
20260901172012 71 321 1.0 2.0 0.00 0.08 0.08 62 1020.1
20260901171235 70 262 0.0 3.0 0.00 0.08 0.08 62 1020.0
20260901170732 70 306 1.0 3.0 0.00 0.08 0.08 62 1020.0
20260901170235 70 276 1.0 3.0 0.00 0.08 0.08 63 1020.1
20260901170027 70 257 1.0 3.0 0.00 0.08 0.08 62 1020.0
20260901164732 70 235 1.0 4.0 0.00 0.08 0.08 61 1020.0
20260901164233 71 247 2.0 5.0 0.00 0.08 0.08 61 1020.0
20260901163734 71 279 2.0 6.0 0.00 0.08 0.08 60 1020.0